This demonstration page uses our WeatherBlox Daily Observations layout. Learn more.

Left ArrowRight Arrow

Hourly Observations for August 30, 2017

Temp ( °F °C ) Dew Point ( °F °C ) Humidity (%) Winds ( mph kmh ) Pressure ( in mb ) Visibility ( mi km ) Precip ( " mm )
12:52 am 00:52 Mostly Clear 64 17.8 62 16.7 93 93 NNE 3 6 30.00 1016 10 16 0.00 0.00
1:52 am 01:52 Mostly Clear 62 16.7 61 16.1 96 96 NNW 5 7 30.00 1016 10 16 0.00 0.00
2:52 am 02:52 Mostly Cloudy 63 17.2 61 16.1 93 93 NW 5 7 30.00 1016 10 16 0.00 0.00
3:52 am 03:52 Clear 62 16.7 61 16.1 96 96 NNE 5 7 29.99 1016 10 16 0.00 0.00
4:52 am 04:52 Clear 62 16.7 61 16.1 96 96 NNE 3 6 29.99 1016 10 16 0.00 0.00
5:52 am 05:52 Clear 62 16.7 60 15.6 93 93 NNE 3 6 30.00 1016 10 16 0.00 0.00
6:52 am 06:52 Sunny 60 15.6 59 15 96 96 NE 5 7 30.02 1017 10 16 0.00 0.00
7:52 am 07:52 Sunny 66 18.9 62 16.7 87 87 ENE 6 9 30.03 1017 10 16 0.00 0.00
8:52 am 08:52 Sunny 71 21.7 64 17.8 79 79 ENE 9 15 30.04 1017 10 16 0.00 0.00
9:52 am 09:52 Sunny 75 23.9 65 18.3 71 71 NNE 10 17 30.04 1017 10 16 0.00 0.00
10:52 am 10:52 Sunny 77 25 65 18.3 66 66 NE 12 19 30.04 1017 10 16 0.00 0.00
11:52 am 11:52 Sunny 79 26.1 65 18.3 62 62 ENE 13 20 30.03 1017 10 16 0.00 0.00
12:52 pm 12:52 Mostly Sunny 81 27.2 63 17.2 54 54 NE 13 20 30.02 1017 10 16 0.00 0.00
1:52 pm 13:52 Mostly Sunny 81 27.2 63 17.2 54 54 ENE 13 20 30.01 1016 10 16 0.00 0.00
2:52 pm 14:52 Mostly Sunny 82 27.8 62 16.7 51 51 NE 15 24 29.99 1016 10 16 0.00 0.00
3:52 pm 15:52 Partly Cloudy 81 27.2 61 16.1 51 51 NE 14 22 29.98 1015 10 16 0.00 0.00
4:52 pm 16:52 Partly Cloudy 79 26.1 62 16.7 56 56 NNE 12 19 29.97 1015 10 16 0.00 0.00
5:52 pm 17:52 Sunny 80 26.7 61 16.1 52 52 ENE 13 20 29.97 1015 10 16 0.00 0.00
6:52 pm 18:52 Sunny 78 25.6 63 17.2 60 60 NNE 10 17 29.97 1015 10 16 0.00 0.00
7:52 pm 19:52 Clear 73 22.8 63 17.2 71 71 NNE 8 13 29.98 1015 10 16 0.00 0.00
8:52 pm 20:52 Clear 71 21.7 64 17.8 79 79 NE 7 11 29.99 1016 10 16 0.00 0.00
9:52 pm 21:52 Clear 70 21.1 64 17.8 82 82 NE 7 11 30.00 1016 10 16 0.00 0.00
10:52 pm 22:52 Clear 69 20.6 64 17.8 84 84 NE 7 11 30.01 1016 10 16 0.00 0.00
11:52 pm 23:52 Clear 68 20 63 17.2 84 84 NE 7 11 30.01 1016 10 16 0.00 0.00

Powered by AerisWeather